Temperature
15 16 16 17 17 18 19 21 23 23 23 23 23 23 22 20 20 17 16 16 16 16 16 16 16 16 16 16 15 15 15 15 15 15 15 15 15 15 15 15 15 15 15 15 15 15 15 15 15
15 15 16 17 17 18 20 21 22 22 22 21 21 22 22 19 17 16 15 15 15 15 15 16 16 16 16 15 15 15 15 15 15 15 15 15 15 15 15 14 15 15 15 15 14 15 15 15 15
15 15 16 17 17 18 20 22 21 21 21 21 21 21 20 17 16 15 15 15 15 15 15 16 16 16 15 15 15 15 15 15 15 15 15 15 15 15 15 15 15 15 14 14 14 14 15 15 15
14 15 16 16 18 19 21 21 20 20 20 20 20 19 17 16 16 15 15 15 15 14 15 15 15 15 15 15 15 15 15 15 15 15 15 15 15 15 15 15 15 14 14 14 14 14 14 14 14
14 16 16 16 18 20 20 21 21 19 19 20 20 18 16 15 15 15 15 15 14 14 15 15 15 15 15 15 15 15 15 15 15 15 15 15 15 14 14 14 14 14 14 14 14 14 14 14 14
14 16 15 16 18 19 20 20 20 20 20 20 19 18 15 15 15 14 14 14 14 14 15 15 15 15 15 15 15 15 15 15 15 15 14 14 14 14 14 14 14 14 14 14 14 14 14 14 14
14 15 15 17 18 19 19 19 19 19 19 19 19 17 15 14 14 14 14 14 14 14 14 14 15 15 15 15 15 15 15 14 14 14 14 14 14 14 14 14 14 14 14 14 14 14 14 14 14
14 14 16 17 17 18 19 19 19 19 18 18 18 17 14 14 14 14 14 14 14 14 14 14 14 14 14 14 14 14 14 14 14 14 14 14 14 14 14 14 14 14 14 14 14 14 13 13 13
13 13 14 16 17 17 18 18 18 17 17 17 16 16 15 14 14 13 13 14 14 14 14 14 14 14 14 14 14 14 14 14 14 14 14 13 13 13 13 13 13 13 13 13 13 13 13 13 13
13 13 14 16 16 17 17 17 17 16 16 16 15 15 14 14 14 13 13 13 13 13 13 14 14 14 13 14 14 13 13 13 13 13 13 13 13 13 13 13 13 13 13 13 13 13 13 13 13
14 13 15 15 16 16 16 16 16 16 15 16 15 14 13 13 13 13 13 13 13 13 13 13 13 13 13 13 13 13 13 13 13 13 13 13 13 13 13 13 13 13 13 13 13 13 12 12 12
14 14 15 15 14 15 15 15 15 15 15 16 15 14 13 13 13 13 13 13 13 13 13 13 13 13 13 13 13 13 13 13 13 13 13 13 13 13 12 12 12 12 12 12 12 12 12 12 12
14 14 14 14 14 14 14 15 15 15 15 15 14 13 13 13 13 13 12 12 12 13 13 13 13 13 13 13 13 13 13 13 13 13 12 12 12 12 12 12 12 12 12 12 12 12 11 11 11
14 14 14 14 13 13 14 14 14 14 14 14 13 13 12 12 12 12 12 12 12 12 13 13 13 13 13 13 13 13 12 12 12 12 12 12 12 12 12 12 12 12 12 12 11 11 11 11 11
13 13 13 14 14 14 13 13 14 14 14 13 13 13 12 12 12 12 12 12 12 12 12 12 12 12 12 12 12 12 12 12 12 12 12 12 12 12 12 12 11 11 11 11 11 11 11 11 10
13 13 12 14 14 14 13 12 14 14 14 13 13 13 12 12 12 12 12 12 12 12 12 12 12 12 12 12 12 12 12 12 12 12 12 12 12 12 11 11 11 11 11 11 11 10 10 10 10
12 12 12 13 14 13 13 12 13 14 13 13 13 13 12 12 11 11 12 12 12 12 12 12 12 12 12 12 12 11 11 11 11 11 11 11 11 11 11 11 11 11 10 10 10 10 10 10 10
11 12 13 13 13 13 12 13 13 13 13 13 13 13 12 12 11 11 11 11 11 11 11 11 11 11 11 11 11 11 11 11 11 11 11 11 11 11 11 11 10 10 10 10 10 10 10 10 9
13 13 13 13 13 13 12 13 13 13 13 13 13 13 12 12 12 11 11 11 11 11 11 11 11 11 11 11 11 11 11 11 11 11 11 10 10 10 10 10 10 10 10 10 9 9 9 9 9
13 13 13 13 13 13 12 13 13 13 13 13 13 13 12 12 11 11 11 11 11 11 11 11 11 11 11 11 10 10 10 10 10 10 10 10 10 10 10 10 10 10 9 9 9 9 9 9 8
12 12 12 12 12 12 12 12 13 13 13 13 13 13 12 12 11 11 10 10 10 10 10 10 10 10 10 10 10 10 10 10 10 10 10 10 10 10 10 9 9 9 9 9 9 9 8 8 8
11 12 12 12 11 11 12 10 12 13 12 12 13 12 12 12 11 11 11 10 10 10 10 10 10 10 10 10 10 10 10 10 10 9 10 9 9 9 9 9 9 9 9 9 9 8 8 8 8
11 12 12 12 12 11 12 11 12 13 12 12 12 12 12 12 11 11 11 10 10 10 10 10 10 10 10 10 10 9 9 9 9 9 9 9 9 9 9 9 9 8 8 8 8 8 8 8 7
11 12 12 12 11 10 12 11 11 12 13 12 12 12 12 11 11 10 10 10 10 10 10 10 10 10 9 9 9 9 9 9 9 8 8 8 8 8 8 8 8 8 8 8 8 8 7 7 7
11 10 10 10 10 11 12 12 11 13 13 13 12 12 12 11 10 10 10 9 9 9 9 9 9 9 9 9 9 9 9 9 8 8 8 8 8 8 8 8 8 8 8 7 7 7 7 7 6
10 11 10 10 10 11 11 10 12 12 12 12 12 12 11 11 10 10 9 9 9 9 9 9 9 9 9 9 9 9 9 8 8 8 8 8 7 7 7 7 7 7 7 7 7 7 7 6 6
10 10 11 10 11 11 11 13 12 12 11 11 11 11 11 10 10 9 9 9 9 9 9 9 9 9 9 9 9 8 8 8 8 8 7 7 7 7 7 7 7 7 7 6 6 6 6 6 6
10 10 10 9 10 11 13 13 11 11 11 10 10 10 10 10 9 9 9 8 9 9 9 9 9 9 9 8 8 8 8 8 7 7 7 7 7 7 7 6 6 6 6 6 6 6 5 5 5
9 10 10 10 10 10 11 12 12 12 11 10 10 11 10 10 9 9 8 8 8 8 8 8 8 8 8 8 8 8 8 8 7 7 7 6 6 6 6 6 6 6 6 5 5 5 5 5 5
10 11 10 9 9 10 9 10 12 11 11 11 11 11 10 10 9 9 8 8 8 8 8 8 8 8 8 8 8 7 7 7 7 7 6 6 6 6 6 5 5 5 5 5 5 5 5 4 4
Wind_Speed
15 13 6 2 3 6 11 7 4 2 1 4 5 4 4 4 4 8 5 8 10 12 15 14 13 13 12 11 11 10 10 9 9 9 9 9 9 9 9 9 10 10 10 10 11 11 11 10 10
12 9 4 3 5 8 8 6 5 2 2 4 5 4 4 6 7 8 5 7 9 11 14 13 13 13 12 11 11 10 10 9 9 9 9 9 9 9 9 10 10 10 10 10 10 10 10 10 10
9 7 3 3 6 9 5 2 2 3 4 3 2 5 4 5 6 5 6 7 9 11 14 13 13 13 12 12 11 10 10 9 9 9 9 9 9 9 10 10 10 10 10 10 10 10 10 9 9
4 3 4 6 12 9 6 2 3 2 1 2 2 3 4 5 4 6 6 7 9 10 14 14 13 13 12 12 11 11 10 9 9 8 8 8 9 9 9 10 10 9 9 9 9 9 9 9 9
3 3 5 8 12 8 5 3 1 2 2 3 3 2 3 4 8 8 5 7 8 9 13 14 13 13 13 12 11 10 10 9 9 8 8 9 9 9 9 9 9 9 9 9 9 8 8 8 8
3 4 6 9 10 7 4 3 2 3 2 2 2 2 3 5 7 6 5 6 7 8 12 14 13 13 12 12 11 10 10 9 9 8 8 8 9 9 9 9 9 9 9 9 8 8 8 8 8
3 4 7 9 8 7 4 1 3 3 2 2 1 3 4 5 5 5 5 5 6 8 9 12 13 13 13 12 11 10 10 9 9 8 8 8 8 8 8 8 8 8 8 8 8 8 7 7 7
3 4 7 9 9 7 2 1 2 4 2 0 1 2 4 6 5 5 5 5 6 6 6 7 11 12 13 12 11 11 10 9 8 8 7 6 6 7 7 7 7 7 7 8 7 7 6 6 6
4 4 6 6 7 4 1 2 2 3 1 1 2 2 5 9 7 5 5 4 4 6 6 6 6 8 11 11 10 11 9 8 7 6 6 5 5 5 5 6 5 6 6 6 6 6 6 6 5
3 5 7 5 6 5 2 3 2 1 2 1 1 5 9 7 7 6 6 5 5 6 6 5 5 6 7 8 9 8 8 7 6 5 5 4 5 3 4 4 3 3 4 5 5 5 5 5 5
4 5 6 6 7 5 2 3 2 3 5 4 4 6 8 7 6 6 6 6 5 6 6 5 5 5 5 4 6 5 6 5 6 5 3 4 6 5 5 4 3 3 4 4 5 5 5 5 5
5 6 7 6 5 5 4 3 4 6 4 1 5 8 8 8 7 6 6 6 6 6 6 6 5 5 5 5 5 4 5 4 5 4 4 5 4 3 3 3 3 3 4 4 5 4 5 6 6
8 5 6 4 4 5 5 5 4 6 3 2 3 7 8 7 6 5 5 5 6 6 6 6 5 5 5 4 3 4 5 4 6 5 5 5 3 2 3 3 4 4 5 5 5 5 5 5 6
5 5 6 4 4 4 5 6 5 5 2 3 6 7 7 7 6 5 5 5 5 5 6 6 6 6 6 4 3 4 5 4 6 6 5 5 4 3 3 3 4 4 5 5 5 5 4 3 4
5 5 5 5 4 3 3 6 6 3 3 5 6 6 5 5 5 5 5 5 5 5 5 6 6 6 6 5 4 5 4 5 5 5 5 6 5 5 4 3 2 4 5 5 5 5 4 3 3
5 5 4 4 4 2 3 7 4 4 5 5 5 5 5 4 4 4 4 4 5 6 6 6 6 6 6 5 4 4 5 5 4 5 5 5 5 5 4 2 2 4 5 4 2 2 3 3 3
3 4 5 2 3 2 4 6 2 4 5 5 6 6 5 4 4 4 4 5 6 6 6 6 6 6 6 6 5 5 5 4 4 5 5 4 4 4 4 3 3 4 3 3 2 3 3 3 3
4 5 5 3 3 3 5 5 1 3 5 6 6 6 6 5 4 4 4 5 6 6 7 7 7 6 6 5 4 3 3 2 3 4 4 3 3 4 3 2 3 4 2 2 2 2 2 2 2
6 6 6 3 2 4 5 6 4 4 5 5 6 6 6 6 5 5 5 5 5 6 7 7 7 6 5 4 3 3 3 2 2 3 3 3 3 3 3 2 2 3 2 2 2 2 2 2 2
7 6 5 2 0 3 5 7 4 5 6 5 5 6 6 6 6 6 5 5 5 6 6 7 6 6 5 4 3 3 3 3 2 2 3 2 2 2 1 2 1 2 2 2 2 2 2 2 2
5 4 3 2 3 4 4 5 4 4 5 4 4 4 6 7 7 7 6 6 5 5 6 6 6 6 6 5 3 3 3 2 1 1 2 1 1 2 2 2 1 1 1 1 1 1 1 1 2
3 3 4 3 2 3 2 3 4 5 5 5 5 5 5 6 7 7 7 6 6 5 5 6 5 5 5 5 4 4 3 3 3 2 2 2 2 1 1 0 1 1 0 0 1 1 1 0 1
3 6 5 5 4 3 3 3 5 5 4 5 5 5 5 5 6 7 6 6 6 6 5 5 5 4 5 5 5 3 2 2 2 2 2 2 2 2 2 1 1 1 1 1 1 1 1 1 1
4 4 4 3 1 3 4 4 5 3 5 6 6 6 6 6 6 6 6 7 6 6 6 6 5 4 4 4 4 4 3 2 2 2 2 2 2 2 3 2 1 1 1 1 1 1 2 2 2
3 2 2 2 1 4 1 2 5 1 3 4 6 6 7 6 6 6 7 7 7 7 6 6 6 5 4 4 4 4 3 2 2 2 2 1 1 1 2 2 2 2 2 2 1 2 2 2 2
3 2 1 1 3 2 1 4 3 4 5 5 5 6 6 6 6 6 6 7 7 7 6 6 6 5 4 4 4 3 3 2 1 1 1 1 1 1 1 1 1 2 2 2 2 2 3 2 3
2 1 0 1 4 3 4 4 2 3 4 3 4 5 6 6 7 7 6 6 7 7 6 6 5 4 4 4 3 3 3 2 2 2 1 1 1 1 1 1 2 2 2 2 2 2 3 3 3
3 3 1 1 2 4 4 4 4 5 5 5 5 6 6 6 6 7 6 6 5 6 5 5 5 4 4 3 3 2 2 2 2 2 2 2 2 1 2 2 2 2 2 3 3 3 3 3 4
2 2 2 3 2 2 4 3 1 4 5 6 5 6 7 7 7 6 6 6 6 6 6 5 5 4 4 3 2 2 2 1 1 2 2 2 2 2 2 3 3 3 3 3 3 4 4 4 4
2 3 2 2 4 3 3 5 2 4 4 4 4 5 6 7 7 7 7 7 6 6 5 5 4 4 3 3 2 2 2 1 2 2 2 2 2 2 3 3 3 3 4 4 4 5 5 5 5
Wind_Direction
308 294 277 269 246 233 241 238 256 272 336 12 8 353 17 27 40 111 136 102 107 118 122 122 120 116 111 107 101 98 97 94 91 87 82 78 75 70 66 64 61 59 56 53 51 49 46 43 42
301 299 281 246 235 236 236 221 227 226 64 44 17 0 38 67 76 104 114 105 108 114 118 119 122 118 114 109 104 100 97 95 92 88 81 78 76 73 68 64 61 57 54 52 49 46 44 42 40
282 277 264 237 233 239 246 199 118 58 68 66 40 8 26 72 89 101 112 116 106 109 113 115 122 119 114 111 108 104 99 95 93 88 82 79 76 73 69 64 60 55 53 49 45 42 41 38 34
282 240 241 244 248 248 267 288 97 93 97 114 94 79 62 43 71 104 116 116 108 107 112 116 121 120 116 113 111 106 100 95 92 91 86 83 78 73 68 63 60 55 51 47 43 39 39 36 32
252 249 231 236 246 254 264 289 114 161 185 183 165 118 79 63 88 105 108 106 108 109 114 120 120 122 118 115 112 108 103 99 94 91 88 84 79 75 70 64 60 55 50 46 41 38 36 33 29
254 244 237 237 244 247 241 261 246 221 198 212 186 109 104 116 108 106 96 100 108 114 120 127 125 123 122 118 114 110 106 101 95 90 87 86 82 78 73 65 59 54 49 45 41 38 35 30 27
262 252 248 255 252 244 233 261 252 253 205 209 193 117 133 134 107 103 98 93 100 112 123 133 135 130 126 120 116 112 108 104 99 94 92 94 91 85 76 66 57 51 47 44 39 35 30 26 21
278 277 253 252 257 248 215 247 279 274 245 19 318 148 165 145 114 103 101 97 104 113 119 126 135 136 134 126 123 120 114 113 110 104 103 106 105 95 86 71 60 52 47 42 37 31 23 16 11
265 252 249 251 261 267 241 269 287 334 99 13 1 13 131 129 121 117 119 111 124 123 124 125 123 125 128 131 137 136 129 124 123 115 108 103 93 86 93 83 69 56 46 40 32 22 15 10 6
227 236 246 273 287 286 281 289 275 257 207 201 81 92 118 136 140 147 156 155 150 142 139 130 123 121 125 132 143 143 131 119 105 90 89 87 89 82 79 99 78 56 42 31 18 8 10 13 14
226 242 261 276 302 315 272 276 260 242 235 219 185 151 145 157 159 169 171 165 158 148 138 127 128 125 123 122 121 116 119 121 101 81 66 75 71 64 69 74 53 39 38 19 1 357 10 15 22
236 245 262 277 311 305 272 258 244 248 270 257 169 155 162 174 178 179 171 160 149 137 131 123 126 125 117 115 120 122 113 104 96 85 63 63 64 48 55 65 41 41 21 8 356 352 8 13 24
249 252 263 290 302 293 279 252 241 252 270 50 134 156 171 174 173 172 162 148 142 141 139 136 137 130 121 105 103 99 90 95 102 84 61 52 57 40 30 53 44 36 22 12 354 1 12 16 22
268 267 264 268 273 276 270 267 243 240 181 140 167 170 176 176 170 163 159 151 146 147 144 143 139 131 130 124 110 96 98 97 93 85 69 55 49 37 31 41 39 27 20 8 2 14 12 12 21
266 256 247 230 240 241 265 266 236 215 174 178 173 169 167 167 162 164 162 154 147 148 144 144 139 130 129 119 110 103 103 98 91 87 69 55 45 34 36 41 34 20 16 13 13 12 11 13 21
241 239 238 212 207 233 230 254 239 178 165 177 172 166 168 168 168 164 153 145 139 139 139 142 139 129 125 116 108 101 90 85 84 83 73 57 44 34 36 37 27 20 21 14 14 20 16 15 15
229 249 243 217 195 216 240 260 212 166 173 186 176 170 168 163 168 154 145 142 141 142 140 135 126 128 122 112 106 95 90 83 85 82 75 62 47 38 45 40 23 21 27 18 14 25 22 15 2
241 250 247 227 211 236 243 261 203 182 185 191 178 169 162 166 167 150 147 138 136 136 136 135 130 130 125 119 117 111 106 109 103 94 85 70 57 43 38 47 30 20 30 24 23 16 18 10 343
271 258 261 255 212 225 244 261 240 192 194 195 185 171 164 166 152 141 139 131 133 131 133 138 136 141 140 140 144 144 145 138 119 115 106 79 63 56 39 31 39 26 33 21 18 17 6 6 358
277 267 270 303 272 237 250 261 239 189 192 192 182 175 166 154 144 147 142 133 140 140 143 141 141 145 147 148 148 136 124 125 128 119 106 102 80 74 53 47 48 41 25 14 17 18 1 350 26
273 269 288 311 302 254 261 271 224 192 192 180 181 172 167 160 155 154 150 146 147 147 150 148 145 144 144 139 124 105 88 77 115 154 143 131 96 89 66 30 36 39 41 16 0 4 10 336 334
293 336 322 293 280 261 218 274 243 190 193 191 185 178 173 159 152 155 153 152 150 145 136 131 136 139 142 142 146 151 160 174 184 163 148 141 140 122 116 28 3 5 15 327 302 10 338 319 293
308 313 297 271 260 292 235 239 274 175 198 207 192 180 168 159 156 153 149 145 140 135 134 135 136 139 145 148 153 157 162 170 151 135 150 160 159 167 167 206 226 233 225 227 278 312 304 273 259
280 285 275 265 264 280 227 202 276 199 197 186 181 174 164 156 147 144 142 138 137 136 138 142 143 149 149 149 154 163 168 174 164 169 181 187 178 174 177 196 218 225 219 218 230 238 266 262 260
283 326 17 354 253 248 183 208 249 175 109 140 157 158 153 148 145 145 145 144 141 142 148 150 150 157 157 157 161 163 169 179 190 191 192 190 189 186 191 183 207 226 225 223 217 223 248 255 250
272 285 103 253 262 270 241 229 238 110 81 75 106 130 139 145 147 147 150 147 146 149 154 156 157 161 159 157 161 161 163 165 180 187 188 205 208 200 173 181 221 238 240 232 215 226 236 241 247
292 258 320 288 288 260 235 209 125 108 108 118 131 142 150 150 149 149 148 148 150 153 157 158 156 149 148 150 150 155 160 162 177 198 200 214 214 197 182 188 230 244 246 235 220 227 235 234 235
270 311 314 230 304 290 260 212 199 183 187 179 176 169 162 160 157 152 148 148 144 144 146 145 143 144 142 144 152 149 156 161 175 192 207 211 216 198 210 213 230 239 238 230 229 237 239 238 242
194 229 242 262 251 262 294 288 23 143 156 169 182 174 169 170 165 159 153 146 142 140 142 142 144 137 137 141 144 150 169 172 186 210 217 212 213 220 234 231 236 242 246 241 230 233 235 238 247
278 248 210 215 269 242 258 270 18 82 109 139 158 164 166 165 162 158 152 146 145 149 149 148 145 141 147 149 151 166 174 183 209 217 219 213 221 227 235 240 242 242 244 241 235 239 240 238 242
Height
1509 1510 1512 1514 1515 1514 1508 1497 1491 1493 1493 1495 1496 1496 1498 1503 1507 1518 1519 1518 1518 1519 1521 1523 1525 1526 1528 1529 1530 1531 1531 1532 1533 1533 1534 1534 1534 1535 1535 1535 1535 1535 1535 1535 1535 1535 1535 1535 1535
1508 1510 1513 1513 1514 1515 1503 1494 1493 1494 1495 1497 1498 1499 1500 1506 1510 1513 1516 1517 1518 1519 1521 1523 1524 1526 1527 1529 1530 1531 1532 1532 1533 1534 1534 1535 1535 1535 1535 1535 1535 1535 1535 1535 1535 1535 1535 1535 1535
1509 1511 1513 1511 1509 1506 1499 1492 1493 1495 1497 1498 1501 1502 1505 1510 1512 1513 1515 1517 1518 1519 1520 1522 1524 1526 1527 1529 1530 1531 1532 1532 1533 1534 1535 1535 1535 1535 1535 1535 1535 1535 1535 1535 1535 1535 1534 1534 1534
1510 1512 1512 1511 1505 1497 1494 1492 1493 1496 1498 1500 1502 1505 1508 1512 1512 1513 1515 1517 1518 1519 1520 1522 1524 1525 1527 1528 1530 1531 1532 1533 1533 1534 1535 1535 1535 1536 1536 1536 1535 1535 1535 1535 1535 1535 1534 1534 1534
1510 1511 1510 1508 1502 1495 1493 1493 1494 1496 1499 1501 1503 1505 1509 1512 1512 1513 1515 1517 1518 1518 1520 1522 1524 1525 1527 1528 1530 1531 1532 1533 1534 1534 1535 1535 1536 1536 1536 1536 1536 1535 1535 1535 1535 1534 1534 1534 1534
1511 1508 1509 1507 1499 1494 1493 1494 1495 1497 1499 1501 1503 1506 1510 1512 1512 1513 1515 1517 1517 1518 1520 1522 1523 1525 1527 1528 1530 1531 1532 1533 1534 1534 1535 1535 1536 1536 1536 1536 1536 1536 1535 1535 1535 1535 1534 1534 1534
1510 1507 1505 1501 1498 1495 1493 1495 1496 1497 1499 1501 1503 1506 1509 1511 1512 1513 1514 1516 1517 1518 1520 1521 1523 1525 1526 1528 1530 1531 1532 1533 1534 1535 1535 1535 1536 1536 1536 1536 1536 1536 1535 1535 1535 1535 1534 1534 1534
1508 1507 1503 1500 1497 1495 1494 1495 1496 1497 1499 1501 1503 1505 1507 1509 1511 1512 1514 1515 1516 1518 1519 1521 1523 1524 1526 1528 1529 1530 1532 1533 1534 1535 1535 1535 1536 1536 1536 1536 1536 1536 1536 1535 1535 1535 1534 1534 1534
1508 1509 1505 1499 1497 1494 1493 1496 1497 1498 1498 1501 1503 1504 1504 1506 1509 1511 1512 1514 1516 1517 1519 1520 1522 1524 1525 1527 1528 1530 1531 1532 1533 1534 1535 1535 1536 1536 1536 1536 1536 1536 1536 1535 1535 1535 1534 1534 1534
1506 1507 1501 1498 1496 1495 1494 1496 1497 1498 1499 1501 1502 1503 1504 1506 1507 1509 1510 1512 1514 1516 1518 1519 1521 1523 1525 1526 1528 1529 1531 1532 1533 1534 1534 1535 1535 1536 1536 1536 1536 1536 1535 1535 1535 1534 1534 1534 1533
1503 1502 1499 1497 1496 1495 1495 1497 1497 1498 1498 1499 1500 1502 1503 1505 1506 1508 1510 1512 1513 1515 1516 1518 1520 1522 1524 1525 1527 1528 1530 1531 1532 1533 1534 1534 1535 1535 1535 1535 1535 1535 1535 1535 1535 1534 1534 1533 1533
1501 1500 1499 1497 1497 1496 1496 1496 1496 1496 1497 1497 1498 1499 1501 1503 1505 1506 1508 1510 1512 1513 1515 1517 1519 1520 1522 1524 1526 1528 1529 1531 1532 1533 1533 1534 1534 1535 1535 1535 1535 1535 1535 1534 1534 1534 1533 1533 1533
1499 1498 1498 1497 1497 1496 1496 1495 1494 1494 1495 1495 1496 1499 1500 1502 1504 1506 1508 1509 1510 1512 1513 1515 1518 1519 1521 1523 1525 1526 1528 1529 1531 1532 1533 1533 1533 1534 1534 1534 1534 1534 1534 1534 1533 1533 1533 1532 1532
1498 1498 1497 1496 1496 1496 1495 1494 1494 1492 1493 1494 1496 1497 1499 1501 1502 1504 1505 1506 1508 1510 1512 1514 1516 1518 1519 1521 1523 1525 1527 1528 1530 1531 1531 1532 1533 1533 1533 1533 1533 1533 1533 1533 1533 1532 1532 1532 1531
1498 1498 1496 1495 1495 1494 1495 1494 1491 1491 1491 1492 1494 1496 1498 1500 1501 1502 1503 1505 1507 1509 1511 1513 1515 1517 1518 1520 1522 1523 1525 1527 1528 1529 1530 1531 1532 1532 1532 1533 1533 1533 1533 1532 1532 1532 1531 1531 1530
1497 1497 1498 1493 1493 1493 1498 1495 1489 1489 1489 1491 1492 1495 1497 1499 1500 1501 1503 1504 1506 1507 1510 1512 1514 1516 1517 1519 1520 1522 1524 1525 1527 1528 1529 1530 1530 1531 1531 1532 1532 1532 1532 1531 1531 1530 1530 1530 1529
1498 1499 1496 1494 1491 1492 1494 1492 1487 1487 1488 1489 1491 1493 1496 1498 1499 1500 1501 1503 1504 1506 1508 1510 1512 1514 1516 1517 1519 1521 1523 1524 1526 1526 1528 1529 1529 1530 1530 1530 1530 1530 1530 1530 1530 1529 1529 1528 1528
1501 1497 1493 1493 1491 1491 1492 1490 1487 1486 1487 1488 1490 1492 1494 1496 1497 1499 1500 1501 1503 1505 1506 1509 1511 1513 1514 1516 1518 1520 1522 1523 1524 1525 1526 1527 1528 1528 1529 1529 1529 1529 1529 1528 1528 1528 1527 1527 1526
1494 1493 1492 1490 1488 1490 1490 1488 1486 1485 1485 1487 1488 1490 1492 1494 1496 1498 1499 1500 1502 1503 1505 1507 1509 1511 1513 1515 1516 1518 1520 1522 1523 1524 1525 1525 1526 1527 1527 1527 1527 1527 1527 1527 1527 1526 1526 1525 1525
1493 1492 1491 1490 1488 1489 1488 1486 1483 1483 1484 1485 1486 1488 1490 1492 1494 1496 1497 1499 1500 1501 1503 1505 1507 1510 1512 1514 1515 1517 1518 1520 1521 1522 1523 1524 1524 1525 1525 1525 1526 1526 1526 1525 1525 1525 1524 1524 1523
1492 1492 1491 1492 1490 1487 1488 1488 1482 1481 1482 1483 1484 1486 1488 1489 1491 1493 1495 1497 1499 1500 1502 1503 1506 1508 1510 1512 1514 1516 1517 1518 1520 1521 1521 1522 1522 1523 1523 1523 1524 1524 1524 1523 1523 1523 1523 1522 1522
1495 1491 1490 1491 1494 1494 1490 1498 1482 1479 1480 1481 1482 1484 1486 1487 1490 1492 1493 1495 1497 1499 1500 1502 1505 1507 1509 1511 1512 1514 1515 1517 1518 1519 1519 1520 1520 1520 1521 1521 1521 1522 1521 1521 1521 1521 1521 1520 1520
1496 1491 1491 1490 1491 1493 1489 1495 1485 1476 1480 1479 1480 1482 1484 1486 1488 1490 1492 1494 1496 1498 1499 1501 1503 1505 1508 1509 1510 1512 1513 1515 1516 1516 1517 1517 1518 1518 1518 1519 1519 1519 1519 1519 1519 1519 1518 1518 1518
1495 1492 1490 1490 1493 1501 1489 1493 1489 1478 1475 1476 1478 1480 1483 1485 1487 1489 1490 1492 1495 1496 1498 1500 1502 1504 1505 1507 1508 1510 1511 1512 1513 1514 1514 1515 1515 1515 1516 1516 1516 1516 1516 1516 1516 1516 1516 1515 1515
1496 1499 1503 1503 1503 1499 1484 1488 1486 1473 1471 1472 1475 1478 1481 1483 1485 1487 1489 1491 1493 1494 1496 1498 1500 1502 1504 1505 1506 1508 1509 1510 1511 1511 1512 1512 1512 1512 1513 1513 1513 1513 1513 1513 1513 1513 1513 1512 1512
1497 1498 1507 1510 1505 1495 1488 1491 1478 1472 1471 1472 1474 1477 1480 1482 1484 1486 1488 1489 1491 1493 1495 1496 1498 1500 1502 1503 1504 1505 1507 1508 1508 1509 1509 1509 1509 1509 1510 1510 1510 1510 1510 1510 1510 1510 1509 1509 1509
1497 1498 1496 1502 1496 1496 1489 1478 1476 1473 1474 1474 1475 1477 1479 1481 1483 1485 1487 1488 1489 1491 1493 1495 1497 1498 1500 1501 1502 1503 1504 1505 1505 1506 1506 1506 1506 1506 1506 1506 1507 1507 1506 1506 1506 1505 1505 1505 1505
1498 1496 1500 1502 1503 1499 1482 1476 1479 1476 1475 1475 1475 1476 1478 1480 1482 1484 1485 1487 1488 1490 1492 1494 1495 1497 1498 1499 1500 1501 1501 1502 1502 1502 1503 1503 1503 1503 1503 1503 1503 1503 1503 1502 1502 1502 1501 1501 1500
1498 1497 1496 1497 1497 1502 1495 1486 1470 1469 1470 1473 1474 1475 1477 1479 1480 1482 1484 1486 1487 1489 1490 1492 1493 1495 1496 1497 1497 1498 1498 1499 1499 1499 1499 1499 1499 1499 1499 1499 1499 1499 1499 1499 1498 1498 1497 1496 1496
1493 1492 1494 1502 1499 1494 1497 1490 1469 1469 1469 1471 1473 1474 1476 1478 1479 1481 1483 1484 1486 1487 1489 1490 1491 1492 1494 1494 1495 1495 1495 1495 1495 1495 1495 1495 1496 1496 1496 1495 1495 1495 1495 1494 1494 1493 1493 1492 1491